Station FTPC1 - 9414290 - San Francisco, CA Image indicating link to RSS feed of recent meteorological observations for station FTPC1


Conditions at FTPC1 as of
(2:00 pm PDT)
2100 GMT on 07/13/2024:
     

Click on the graph icon in the table below to see a time series plot of the last five days of that observation.

5-day plot - Wind Direction Wind Direction (WDIR):WSW ( 240 deg true )
5-day plot - Wind Speed Wind Speed (WSPD): 6.0 kts
5-day plot - Wind Gust Wind Gust (GST): 11.1 kts
5-day plot - Atmospheric Pressure Atmospheric Pressure (PRES):29.95 in
5-day plot - Pressure Tendency Pressure Tendency (PTDY):+0.00 in ( Steady )
5-day plot - Air Temperature Air Temperature (ATMP): 58.6 °F
5-day plot - Wind Speed at 10 Meters Wind Speed at 10 meters (WSPD10M): 5.8 kts
5-day plot - Wind Speed at 20 Meters Wind Speed at 20 meters (WSPD20M): 7.8 kts
5-day plot -  Wind Speed, Wind Gust and Atmospheric Pressure Combined plot of Wind Speed, Gust, and Air Pressure
NOS Water Level Observation Network Water Level
Previous observations
TIME
(PDT)
5-day plot - Wind Direction
WDIR
 
5-day plot - Wind Speed
WSPD
kts
5-day plot - Wind Gust
GST
kts
5-day plot - Wave Height
WVHT
ft
5-day plot - Dominant Wave Period
DPD
sec
5-day plot - Average Wave Period
APD
sec
5-day plot - Mean Wave Direction
MWD
 
5-day plot - Atmospheric Pressure
PRES
in
5-day plot - Pressure Tendency
PTDY
in
5-day plot - Air Temperature
ATMP
°F
5-day plot - Water Temperature
WTMP
°F
5-day plot - Dew Point
DEWP
°F
5-day plot - Salinity
SAL
psu
5-day plot - Visibility
VIS
nmi
5-day plot - Tide (above MLLW)
TIDE
ft
2024-07-13 01:54 pmWSW 6.0 18.1----29.95- 58.5-----
2024-07-13 01:48 pm W 6.0 13.0----29.94- 58.8-----
2024-07-13 01:42 pmWSW 8.0 18.1----29.94- 58.8-----
2024-07-13 01:36 pmWSW 8.0 14.0----29.94- 58.8-----
2024-07-13 01:30 pm SW 8.0 17.1----29.94-------
2024-07-13 01:24 pm SW 7.0 14.0----29.94-------
2024-07-13 01:18 pmWSW 8.0 15.0----29.94- 58.8-----
2024-07-13 01:12 pm SW 7.0 12.0----29.95- 58.8-----
2024-07-13 01:06 pmSSW 5.1 12.0----29.95- 58.6-----
2024-07-13 01:00 pmWSW 9.9 15.9----29.94-0.02------
2024-07-13 12:54 pmWNW 6.0 12.0----29.95-------
2024-07-13 12:48 pm SW 1.9 15.9----29.95-------
2024-07-13 12:42 pm SW 6.0 14.0----29.95-------
2024-07-13 12:36 pm SW 8.0 15.9----29.95-------
2024-07-13 12:30 pm SW 9.9 14.0----29.96- 57.9-----
2024-07-13 12:24 pmSSW 8.9 15.0----29.96- 58.1-----
2024-07-13 12:18 pmWSW 4.1 13.0----29.95- 58.1-----
2024-07-13 12:12 pmWSW 2.9 12.0----29.95- 57.9-----
2024-07-13 12:06 pm W 6.0 12.0----29.95- 57.7-----
2024-07-13 12:00 pm SW 5.1 9.9----29.94+0.00------
2024-07-13 11:54 amWSW 4.1 12.0----29.95-------
2024-07-13 11:48 amWSW 6.0 13.0----29.94- 56.8-----
2024-07-13 11:42 am W 5.1 12.0----29.95- 56.5-----
2024-07-13 11:36 am W 4.1 8.9----29.94- 56.1-----
2024-07-13 11:30 amWSW 7.0 11.1----29.94- 56.1-----
2024-07-13 11:24 am SW 5.1 12.0----29.96- 55.9-----
2024-07-13 11:18 amWSW 6.0 11.1----29.95- 55.9-----
2024-07-13 11:12 am SW 5.1 8.9----29.95- 56.1-----
2024-07-13 11:06 amWSW 5.1 8.9----29.95- 56.3-----
2024-07-13 11:00 am W 4.1 11.1----29.95+0.02 56.3-----
2024-07-13 10:54 am W 8.9 11.1----29.93- 56.3-----
2024-07-13 10:48 am W 9.9 13.0----29.94-------
2024-07-13 10:42 amWSW 7.0 11.1----29.94-------
2024-07-13 10:36 am SW 7.0 11.1----29.95-------
2024-07-13 10:30 am SW 6.0 9.9----29.96- 56.3-----
2024-07-13 10:24 amWSW 6.0 12.0----29.95- 55.9-----
2024-07-13 10:18 amWSW 7.0 12.0----29.95- 55.8-----
2024-07-13 10:12 amWSW 6.0 12.0----29.95- 55.6-----
2024-07-13 10:06 amWSW 6.0 11.1----29.96- 55.4-----
2024-07-13 10:00 am-------29.96+0.04------
2024-07-13 09:54 am-------29.96-------
2024-07-13 09:48 amSSW 8.0 12.0----29.96- 55.2-----
2024-07-13 09:42 amSSW 2.9 9.9----29.95- 55.2-----
2024-07-13 09:36 amSSW 7.0 9.9----29.94- 55.0-----
2024-07-13 09:30 am SW 5.1 8.9------ 55.0-----
2024-07-13 09:24 amWSW 4.1 8.9------ 55.0-----
2024-07-13 09:18 amWSW 4.1 12.0----29.94-------
2024-07-13 09:12 amWSW 7.0 12.0----29.94-------
2024-07-13 09:06 am SW 8.0 12.0----29.94-------
2024-07-13 09:00 amSSW 6.0 13.0----29.94+0.06 54.5-----
2024-07-13 08:54 am SW 4.1 9.9----29.94- 54.3-----
2024-07-13 08:48 am SW 7.0 12.0----29.93- 54.3-----
2024-07-13 08:42 amWSW 5.1 8.9----29.93- 54.3-----
2024-07-13 08:36 am SW 4.1 13.0----29.93- 54.3-----
2024-07-13 08:30 am W 7.0 12.0----29.92- 54.3-----
2024-07-13 08:24 amWSW 4.1 9.9----29.93- 54.3-----
2024-07-13 08:18 amWSW 6.0 17.1----29.93- 54.1-----
2024-07-13 08:12 am SW 8.9 13.0----29.92- 54.0-----
2024-07-13 08:06 am SW 7.0 13.0----29.93- 53.8-----
2024-07-13 08:00 am SW 2.9 12.0----29.92+0.04 53.8-----
2024-07-13 07:54 amWSW 4.1 8.0----29.92- 53.6-----
2024-07-13 07:48 am SW 5.1 11.1----29.91- 53.6-----
2024-07-13 07:42 am SW 4.1 12.0----29.92- 53.8-----
2024-07-13 07:36 amSSW 6.0 9.9----29.92- 53.8-----
2024-07-13 07:30 am W 7.0 12.0----29.91- 53.6-----
2024-07-13 07:24 amWSW 6.0 13.0----29.91- 53.8-----
2024-07-13 07:18 am W 7.0 14.0----29.91- 53.8-----
2024-07-13 07:12 amWSW 7.0 13.0----29.91- 53.8-----
2024-07-13 07:06 am SW 7.0 11.1----29.92- 53.8-----
2024-07-13 07:00 am SW 8.0 11.1----29.92+0.06 53.6-----
2024-07-13 06:54 amWSW 5.1 11.1----29.92- 53.4-----
2024-07-13 06:48 am SW 8.0 12.0----29.92- 53.4-----
2024-07-13 06:42 am SW 6.0 11.1----29.91- 53.2-----
2024-07-13 06:36 am SW 5.1 9.9----29.91- 53.2-----
2024-07-13 06:30 amSSW 4.1 11.1----29.91- 53.2-----
2024-07-13 06:24 am SE 1.9 12.0----29.91- 53.1-----
2024-07-13 06:18 amWSW 11.1 14.0----29.89- 53.1-----
2024-07-13 06:12 amSSW 4.1 11.1----29.89- 53.1-----
2024-07-13 06:06 am S 6.0 9.9----29.89- 53.1-----
2024-07-13 06:00 amSSW 7.0 11.1----29.88+0.03 52.7-----
2024-07-13 05:54 am W 7.0 20.0----29.87- 52.9-----
2024-07-13 05:48 am SW 7.0 15.9----29.85- 53.1-----
2024-07-13 05:42 am W 8.0 18.1----29.84- 53.1-----
2024-07-13 05:36 am SW 6.0 14.0----29.85- 53.2-----
2024-07-13 05:30 amWSW 8.0 13.0----29.86- 53.4-----
2024-07-13 05:24 am W 5.1 9.9----29.86- 53.4-----
2024-07-13 05:18 amWSW 6.0 13.0----29.87- 53.6-----
2024-07-13 05:12 am SW 8.9 15.9----29.87- 53.6-----
2024-07-13 05:06 am SW 9.9 13.0----29.87- 53.6-----
2024-07-13 05:00 am SW 7.0 11.1----29.88+0.02 53.6-----
2024-07-13 04:54 am SW 4.1 9.9----29.88- 53.6-----
2024-07-13 04:48 amWSW 4.1 8.9----29.88-------
2024-07-13 04:42 amWSW 6.0 12.0----29.88-------
2024-07-13 04:36 amWSW 6.0 12.0----29.88-------
2024-07-13 04:30 am SW 6.0 12.0----29.88-------
2024-07-13 04:24 amWSW 8.0 13.0----29.87-------
2024-07-13 04:18 amWSW 5.1 12.0----29.87- 53.1-----
2024-07-13 04:12 amWSW 5.1 11.1----29.87- 53.1-----
2024-07-13 04:06 am SW 6.0 12.0----29.86- 53.1-----
2024-07-13 04:00 am SW 7.0 9.9----29.86- 53.1-----
2024-07-13 03:54 amWSW 5.1 8.9----29.86- 52.9-----
2024-07-13 03:48 am SW 5.1 8.0----29.86- 52.9-----
2024-07-13 03:42 am SW 4.1 11.1----29.85- 52.9-----
2024-07-13 03:36 amSSW 5.1 9.9----29.85- 52.9-----
2024-07-13 03:30 amSSW 6.0 9.9----29.85- 53.1-----
2024-07-13 03:24 am SW 5.1 9.9----29.85- 53.1-----
2024-07-13 03:18 amSSW 6.0 11.1----29.85- 53.2-----
2024-07-13 03:12 amSSW 6.0 11.1----29.85- 53.4-----
2024-07-13 03:06 amSSW 5.1 8.9----29.85- 53.2-----
2024-07-13 03:00 amWSW 5.1 9.9----29.85-0.01------
2024-07-13 02:54 am SW 5.1 12.0----29.85-------
2024-07-13 02:48 amSSW 6.0 9.9----29.85-------
2024-07-13 02:42 amSSW 6.0 12.0----29.85-------
2024-07-13 02:36 am SW 4.1 9.9----29.85-------
2024-07-13 02:30 amSSW 6.0 12.0----29.85- 53.1-----
2024-07-13 02:24 am S 1.9 12.0----29.85- 53.2-----
2024-07-13 02:18 amWSW 5.1 9.9----29.85- 53.2-----
2024-07-13 02:12 am SW 6.0 11.1----29.86- 53.2-----
2024-07-13 02:06 amSSW 8.0 12.0----29.86- 53.1-----
2024-07-13 02:00 am SW 7.0 12.0----29.86+0.00 53.1-----
2024-07-13 01:54 am S 5.1 9.9----29.87- 52.9-----
2024-07-13 01:48 amSSW 6.0 15.0----29.86- 52.7-----
2024-07-13 01:42 am S 6.0 13.0----29.86- 52.5-----
2024-07-13 01:36 am SW 6.0 15.0----29.86- 52.7-----
2024-07-13 01:30 am SW 5.1 7.0----29.86- 52.7-----
2024-07-13 01:24 amWSW 5.1 13.0----29.86- 52.7-----
2024-07-13 01:18 am SW 6.0 13.0----29.86- 52.5-----
2024-07-13 01:12 am SW 6.0 17.1----29.85- 52.7-----
2024-07-13 01:06 amSSW 5.1 13.0----29.85- 52.7-----
2024-07-13 01:00 amSSW 6.0 13.0------ 52.9-----
2024-07-13 12:54 am SW 4.1 9.9------ 52.7-----
2024-07-13 12:48 amSSW 7.0 13.0----29.86- 52.7-----
2024-07-13 12:42 amSSW 4.1 7.0----29.85- 52.7-----
2024-07-13 12:36 am SW 4.1 8.9----29.85- 52.7-----
2024-07-13 12:30 amWSW 2.9 8.9----29.85- 52.9-----
2024-07-13 12:24 amSSW 4.1 8.0----29.85- 53.1-----
2024-07-13 12:18 am S 5.1 9.9----29.86- 53.1-----
2024-07-13 12:12 am S 4.1 8.0----29.86- 53.1-----
2024-07-13 12:06 am SW 7.0 12.0----29.86- 53.1-----
2024-07-13 12:00 amSSW 6.0 9.9----29.86+0.00 53.1-----
2024-07-12 11:54 pm SE 1.9 5.1----29.86- 53.1-----
2024-07-12 11:48 pmSSW 4.1 8.9----29.85- 53.2-----
2024-07-12 11:42 pmSSW 5.1 8.9----29.85- 53.2-----
2024-07-12 11:36 pmWSW 4.1 8.9----29.85- 53.2-----
2024-07-12 11:30 pm S 4.1 7.0----29.86- 52.9-----
2024-07-12 11:24 pm SE 2.9 11.1----29.85- 53.1-----
2024-07-12 11:18 pmWSW 1.9 8.0----29.84- 53.4-----
2024-07-12 11:12 pm W 1.9 9.9----29.85- 53.4-----
2024-07-12 11:06 pmSSW 5.1 7.0----29.85- 53.2-----
2024-07-12 11:00 pm S 1.0 5.1----29.86+0.01 53.2-----
2024-07-12 10:54 pmSSW 4.1 7.0----29.86- 53.2-----
2024-07-12 10:48 pmNNW 2.9 14.0----29.86- 53.4-----
2024-07-12 10:42 pm SW 4.1 9.9----29.86- 53.6-----
2024-07-12 10:36 pm S 1.9 8.9----29.86- 53.6-----
2024-07-12 10:30 pmSSW 4.1 8.0----29.86- 53.6-----
2024-07-12 10:24 pm SW 1.9 7.0----29.85- 53.6-----
2024-07-12 10:18 pmSSE 2.9 8.9----29.85- 53.6-----
2024-07-12 10:12 pmWNW 1.9 5.1----29.85- 53.6-----
2024-07-12 10:06 pm SW 6.0 8.9----29.85- 53.4-----
2024-07-12 10:00 pmSSW 6.0 9.9----29.85+0.00 53.6-----
2024-07-12 09:54 pm SW 4.1 9.9----29.85- 53.6-----
2024-07-12 09:48 pmWSW 5.1 11.1----29.85- 53.6-----
2024-07-12 09:42 pm SE 1.0 5.1----29.86- 53.6-----
2024-07-12 09:36 pm SW 4.1 8.0----29.85- 53.6-----
2024-07-12 09:30 pm W 2.9 8.0----29.85- 53.8-----
2024-07-12 09:24 pm SE 1.9 5.1----29.86- 53.8-----
2024-07-12 09:18 pm NE 2.9 8.0----29.86- 53.8-----
2024-07-12 09:12 pm W 4.1 9.9----29.85- 53.8-----
2024-07-12 09:06 pm NW 5.1 8.9----29.86- 53.8-----
2024-07-12 09:00 pmSSW 4.1 11.1----29.86+0.02 54.0-----
2024-07-12 08:54 pm SW 2.9 13.0----29.86- 54.0-----
2024-07-12 08:48 pm W 6.0 11.1----29.86- 54.0-----
2024-07-12 08:42 pmWNW 2.9 7.0----29.86- 54.1-----
2024-07-12 08:36 pm W 2.9 12.0----29.87- 54.0-----
2024-07-12 08:30 pmWSW 7.0 11.1----29.86- 54.0-----
2024-07-12 08:24 pmWSW 6.0 14.0----29.86- 54.0-----
2024-07-12 08:18 pm SW 4.1 12.0----29.86- 54.3-----
2024-07-12 08:12 pm SW 4.1 15.0----29.86- 54.3-----
2024-07-12 08:06 pm S 1.9 8.0----29.85- 54.5-----
2024-07-12 08:00 pmWSW 2.9 8.9----29.85+0.01 54.5-----
2024-07-12 07:54 pmWSW 6.0 12.0----29.85- 54.5-----
2024-07-12 07:48 pm W 5.1 8.9----29.85- 54.5-----
2024-07-12 07:42 pm SW 6.0 13.0----29.85- 54.3-----
2024-07-12 07:36 pm SW 5.1 15.9----29.85- 54.5-----
2024-07-12 07:30 pmWSW 9.9 19.0----29.85- 54.7-----
2024-07-12 07:24 pm SW 7.0 15.9----29.84- 54.9-----
2024-07-12 07:18 pm SW 6.0 13.0----29.84- 54.9-----
2024-07-12 07:12 pm SW 8.9 13.0----29.84- 54.9-----
2024-07-12 07:06 pmWSW 5.1 15.9----29.84- 55.0-----
2024-07-12 07:00 pmWSW 8.0 15.9----29.85+0.00 55.2-----
2024-07-12 06:54 pmWSW 6.0 14.0----29.84- 55.2-----
2024-07-12 06:48 pmWSW 8.9 18.1----29.84- 55.4-----
2024-07-12 06:42 pm SW 8.9 14.0----29.85- 55.4-----
2024-07-12 06:36 pm SW 7.0 15.9----29.84- 55.4-----
2024-07-12 06:30 pm SW 5.1 14.0----29.84- 55.6-----
2024-07-12 06:24 pmWSW 6.0 17.1----29.84- 55.8-----
2024-07-12 06:18 pm SW 6.0 18.1----29.84- 55.8-----
2024-07-12 06:12 pm SW 7.0 18.1----29.84- 55.8-----
2024-07-12 06:06 pm SW 9.9 19.0----29.84- 55.6-----
2024-07-12 06:00 pm SW 13.0 22.9----29.83-0.02 55.8-----
2024-07-12 05:54 pm SW 11.1 18.1----29.84- 55.9-----
2024-07-12 05:48 pm SW 8.0 18.1----29.84- 56.1-----
2024-07-12 05:42 pm SW 11.1 20.0----29.83- 55.9-----
2024-07-12 05:36 pm SW 11.1 22.0----29.83- 56.3-----
2024-07-12 05:30 pm SW 11.1 20.0----29.84- 56.3-----
2024-07-12 05:24 pm SW 8.9 17.1----29.84- 56.5-----
2024-07-12 05:18 pm SW 7.0 15.0----29.84- 56.7-----
2024-07-12 05:12 pm SW 8.0 15.9----29.84- 56.5-----
2024-07-12 05:06 pm SW 8.9 15.0----29.84- 56.5-----
2024-07-12 05:00 pm SW 9.9 19.0----29.84-0.04 56.5-----
2024-07-12 04:54 pm SW 9.9 18.1----29.84- 56.8-----
2024-07-12 04:48 pm SW 12.0 19.0----29.84- 56.8-----
2024-07-12 04:42 pmWSW 7.0 15.0----29.84- 57.4-----
2024-07-12 04:36 pmWSW 7.0 17.1----29.84- 57.2-----
2024-07-12 04:30 pm SW 14.0 19.0----29.85- 56.7-----
2024-07-12 04:24 pm SW 12.0 22.9----29.85- 56.8-----
2024-07-12 04:18 pm SW 8.0 18.1----29.85- 57.0-----
2024-07-12 04:00 pm SW 9.9 14.0----29.85-0.02 57.6-----
2024-07-12 03:54 pmWSW 8.9 17.1----29.85- 57.4-----
2024-07-12 03:48 pmWSW 6.0 13.0----29.85-------
2024-07-12 03:42 pmWSW 8.9 15.0----29.86-------
2024-07-12 03:36 pm SW 12.0 19.0----29.86-------
2024-07-12 03:30 pm SW 9.9 22.0----29.86- 57.4-----
2024-07-12 03:24 pm SW 8.9 20.0----29.86- 57.9-----
2024-07-12 03:18 pm SW 14.0 22.9----29.86-------
2024-07-12 03:12 pm SW 9.9 19.0----29.86-------
2024-07-12 03:06 pm SW 12.0 19.0----29.86-------
2024-07-12 03:00 pmWSW 11.1 20.0----29.86-0.03 58.1-----
2024-07-12 02:54 pm SW 14.0 20.0----29.86- 57.7-----
2024-07-12 02:48 pm SW 14.0 19.0----29.86- 57.7-----
2024-07-12 02:42 pm SW 11.1 25.1----29.86- 58.1-----
2024-07-12 02:36 pm SW 11.1 18.1----29.86- 58.6-----
2024-07-12 02:30 pm SW 9.9 22.9----29.87- 58.6-----
2024-07-12 02:24 pmWSW 11.1 21.0----29.87- 58.5-----
2024-07-12 02:18 pmWSW 2.9 13.0----29.87- 58.8-----
2024-07-12 02:12 pm W 4.1 15.9----29.87- 58.5-----
2024-07-12 02:06 pmWSW 7.0 17.1----29.87- 58.5-----
2024-07-12 02:00 pmWSW 6.0 14.0----29.88+0.00 58.8-----
2024-07-12 01:54 pm SW 7.0 11.1----29.87- 59.0-----